#timestamp,LO_Frequency,Hit,Temp,Hum 
1487908815.3,286046969.2,N,0.0,0.0
1487908835.1,286046967.4,N,0.0,0.0
1487908855.5,286046963.1,Y,0.0,0.0
1487908875.3,286046967.6,N,0.0,0.0
1487908895.1,286046965.2,Y,0.0,0.0
1487908915.9,286046966.9,N,0.0,0.0
1487908935.7,286046965.4,N,0.0,0.0
1487908955.5,286046961.4,Y,0.0,0.0
1487908975.4,286046968.3,N,0.0,0.0
1487908995.1,286046968.6,N,0.0,0.0
1487909015.9,286046967.1,N,0.0,0.0
1487909035.7,286046961.9,Y,0.0,0.0
1487909055.8,286046967.4,N,0.0,0.0
1487909075.6,286046966.5,N,0.0,0.0
1487909095.5,286046967.2,N,0.0,0.0
1487909115.3,286046964.4,N,0.0,0.0
1487909135.1,286046961.3,N,0.0,0.0
1487909155.9,286046963.8,N,0.0,0.0
1487909175.8,286046960.1,N,0.0,0.0
1487909195.6,286046958.8,N,0.0,0.0
1487909215.2,286046958.3,N,0.0,0.0
1487909235.0,286046958.2,N,0.0,0.0
1487909235.9,286046958.2,N,0.0,0.0
1487909255.7,286046958.4,N,0.0,0.0
1487909275.6,286046956.1,Y,0.0,0.0
1487909295.4,286046963.8,N,0.0,0.0
1487909315.2,286046963.8,N,0.0,0.0
1487909335.1,286046964.4,N,0.0,0.0
1487909336.0,286046964.4,N,0.0,0.0
1487909355.8,286046963.6,N,0.0,0.0
1487909375.6,286046965.8,N,0.0,0.0
1487909395.5,286046958.6,N,0.0,0.0
1487909415.3,286046956.5,N,0.0,0.0
1487909435.1,286046959.4,N,0.0,0.0
1487909455.9,286046958.0,N,0.0,0.0
1487909475.7,286046953.4,N,0.0,0.0
1487909495.5,286046951.7,Y,0.0,0.0
1487909515.4,286046963.5,N,0.0,0.0
1487909535.2,286046963.8,N,0.0,0.0
1487909555.0,286046961.9,N,0.0,0.0
1487909555.9,286046961.9,N,0.0,0.0
1487909575.8,286046961.7,N,0.0,0.0
1487909595.6,286046959.7,N,0.0,0.0
1487909615.4,286046958.2,N,0.0,0.0
1487909635.3,286046959.3,N,0.0,0.0
1487909655.1,286046958.6,N,0.0,0.0
1487909675.8,286046959.3,N,0.0,0.0
1487909695.7,286046957.2,N,0.0,0.0
1487909715.5,286046957.6,N,0.0,0.0
1487909735.3,286046957.6,N,0.0,0.0
1487909755.2,286046954.3,N,0.0,0.0
1487909775.9,286046954.8,N,0.0,0.0
1487909795.7,286046952.0,N,0.0,0.0
1487909815.6,286046950.1,N,0.0,0.0
1487909835.4,286046951.6,N,0.0,0.0
1487909855.2,286046948.5,Y,0.0,0.0
1487909875.1,286046963.8,N,0.0,0.0
1487909876.0,286046963.8,N,0.0,0.0
1487909895.8,286046965.8,N,0.0,0.0
1487909915.6,286046966.4,N,0.0,0.0
1487909935.5,286046959.7,N,0.0,0.0
1487909955.3,286046960.9,N,0.0,0.0
1487909975.1,286046962.8,N,0.0,0.0
1487909995.9,286046958.4,N,0.0,0.0
1487910015.7,286046960.5,N,0.0,0.0
1487910035.5,286046959.4,N,0.0,0.0
1487910055.4,286046956.7,N,0.0,0.0
1487910075.2,286046955.6,N,0.0,0.0
1487910095.0,286046953.7,N,0.0,0.0
1487910095.9,286046953.7,N,0.0,0.0
1487910115.8,286046954.5,N,0.0,0.0
1487910135.6,286046953.6,N,0.0,0.0
1487910155.4,286046953.5,N,0.0,0.0
1487910175.3,286046954.8,N,0.0,0.0
1487910195.1,286046953.2,N,0.0,0.0
1487910196.0,286046953.2,N,0.0,0.0
1487910215.8,286046949.3,N,0.0,0.0
1487910235.7,286046951.3,N,0.0,0.0
1487910255.5,286046947.0,N,0.0,0.0
1487910275.3,286046945.8,N,0.0,0.0
1487910295.1,286046946.8,N,0.0,0.0
1487910315.9,286046946.8,N,0.0,0.0
1487910335.7,286046944.9,N,0.0,0.0
1487910355.5,286046946.7,N,0.0,0.0
1487910375.4,286046944.5,N,0.0,0.0
1487910395.9,286046942.2,Y,0.0,0.0
1487910415.7,286046965.8,N,0.0,0.0
1487910435.5,286046963.6,N,0.0,0.0
1487910455.4,286046963.6,N,0.0,0.0
1487910475.2,286046963.8,N,0.0,0.0
1487910495.0,286046962.5,N,0.0,0.0
1487910495.9,286046962.5,N,0.0,0.0
1487910515.8,286046962.0,N,0.0,0.0
1487910535.6,286046962.2,N,0.0,0.0
1487910555.4,286046960.1,N,0.0,0.0
1487910575.3,286046958.8,N,0.0,0.0
1487910595.1,286046958.9,N,0.0,0.0
1487910615.8,286046956.7,N,0.0,0.0
1487910635.7,286046957.4,N,0.0,0.0
1487910655.5,286046955.0,N,0.0,0.0
1487910675.3,286046953.6,N,0.0,0.0
1487910695.2,286046955.2,N,0.0,0.0
1487910715.9,286046954.6,N,0.0,0.0
1487910735.7,286046954.4,N,0.0,0.0
1487910755.6,286046950.8,N,0.0,0.0
1487910775.4,286046951.2,N,0.0,0.0
1487910795.2,286046949.1,N,0.0,0.0
1487910815.1,286046947.0,N,0.0,0.0
1487910816.0,286046947.0,N,0.0,0.0
1487910835.8,286046946.9,N,0.0,0.0
1487910855.6,286046948.4,N,0.0,0.0
1487910875.5,286046945.0,N,0.0,0.0
1487910895.3,286046945.1,N,0.0,0.0
1487910915.1,286046945.0,N,0.0,0.0
1487910935.9,286046944.5,N,0.0,0.0
1487910955.7,286046942.2,Y,0.0,0.0
1487910975.5,286046972.1,N,0.0,0.0
1487910995.4,286046972.2,N,0.0,0.0
1487911015.2,286046969.5,N,0.0,0.0
1487911035.0,286046970.6,N,0.0,0.0
1487911035.9,286046970.6,N,0.0,0.0
1487911055.8,286046970.8,N,0.0,0.0
1487911075.6,286046967.4,N,0.0,0.0
1487911095.4,286046967.1,N,0.0,0.0
1487911115.3,286046963.0,N,0.0,0.0
1487911135.1,286046966.0,N,0.0,0.0
1487911136.0,286046966.0,N,0.0,0.0
1487911155.8,286046962.5,N,0.0,0.0
1487911175.7,286046962.7,N,0.0,0.0
1487911195.5,286046962.4,N,0.0,0.0
1487911215.3,286046962.4,N,0.0,0.0
1487911235.1,286046959.9,N,0.0,0.0
1487911255.9,286046958.7,N,0.0,0.0
1487911275.7,286046956.6,N,0.0,0.0
1487911295.5,286046957.7,N,0.0,0.0
1487911315.4,286046955.8,N,0.0,0.0
1487911335.2,286046954.5,N,0.0,0.0
1487911355.0,286046951.7,Y,0.0,0.0
1487911356.0,286046951.7,Y,0.0,0.0
1487911375.8,286047018.0,N,0.0,0.0
1487911395.6,286047018.0,N,0.0,0.0
1487911415.5,286047018.7,N,0.0,0.0
1487911435.3,286047018.8,N,0.0,0.0
1487911455.1,286047016.3,N,0.0,0.0
1487911475.8,286047016.3,N,0.0,0.0
1487911495.7,286047014.6,N,0.0,0.0
1487911515.5,286047013.3,N,0.0,0.0
1487911535.3,286047013.8,N,0.0,0.0
1487911555.2,286047013.8,N,0.0,0.0
1487911575.0,286047010.9,N,0.0,0.0
1487911575.9,286047010.9,N,0.0,0.0
1487911595.7,286047011.4,N,0.0,0.0
1487911615.6,286047012.3,N,0.0,0.0
1487911635.4,286047011.8,N,0.0,0.0
1487911655.2,286047009.8,N,0.0,0.0
1487911675.1,286047010.6,N,0.0,0.0
1487911676.0,286047010.6,N,0.0,0.0
1487911695.8,286047007.8,N,0.0,0.0
1487911715.6,286047008.0,N,0.0,0.0
1487911735.5,286047009.2,N,0.0,0.0
1487911755.3,286047006.3,N,0.0,0.0
1487911775.1,286047006.8,N,0.0,0.0
1487911795.9,286047004.5,N,0.0,0.0
1487911815.7,286047004.5,N,0.0,0.0
1487911835.5,286047005.7,N,0.0,0.0
1487911855.4,286047003.7,N,0.0,0.0
1487911875.2,286047004.0,N,0.0,0.0
1487911895.0,286047003.5,N,0.0,0.0
1487911895.9,286047003.5,N,0.0,0.0
1487911915.8,286047004.4,N,0.0,0.0
1487911935.6,286047001.7,N,0.0,0.0
1487911955.4,286047002.8,N,0.0,0.0
1487911975.3,286047000.9,N,0.0,0.0
1487911995.1,286047001.0,N,0.0,0.0
1487911996.0,286047001.0,N,0.0,0.0
1487912015.8,286047002.5,N,0.0,0.0
1487912035.7,286047000.0,N,0.0,0.0
1487912055.5,286047000.9,N,0.0,0.0
1487912075.3,286046998.9,N,0.0,0.0
1487912095.1,286046999.5,N,0.0,0.0
1487912115.9,286046997.0,N,0.0,0.0
1487912135.7,286046996.8,N,0.0,0.0
1487912155.5,286046995.6,N,0.0,0.0
1487912175.4,286046994.5,N,0.0,0.0
1487912195.2,286046992.5,N,0.0,0.0
1487912215.0,286046992.2,N,0.0,0.0
1487912215.9,286046992.2,N,0.0,0.0
1487912235.8,286046992.7,N,0.0,0.0
1487912255.6,286046990.1,N,0.0,0.0
1487912275.4,286046990.9,N,0.0,0.0
1487912295.3,286046988.6,N,0.0,0.0
1487912315.1,286046988.3,N,0.0,0.0
1487912335.8,286046985.8,N,0.0,0.0
1487912355.7,286046988.5,N,0.0,0.0
1487912375.5,286046987.3,N,0.0,0.0
1487912395.3,286046989.9,N,0.0,0.0
